Temperature
16 14 13 13 12 14 15 14 13 12 12 9 8 10 12 13 11 10 11 13 14 16 17 16 15 14 12 12 11 10 9 8 7 7 6 6 6 5 5 4 4 3 3 2
14 13 13 13 13 13 13 13 12 12 11 10 9 9 12 11 11 11 11 12 15 17 17 16 15 14 13 13 12 11 10 10 9 8 7 6 6 5 4 4 3 3 3 2
15 15 15 14 14 14 13 13 13 13 13 11 9 11 11 11 11 11 12 13 15 16 18 18 17 16 15 14 14 13 13 11 10 9 7 6 5 5 4 4 4 3 3 2
13 13 14 15 14 14 12 13 13 13 12 10 11 11 13 12 10 10 13 14 17 19 19 19 18 17 16 16 15 14 14 12 11 10 8 7 6 6 6 5 4 3 2 2
14 15 14 14 14 13 13 13 13 12 11 10 9 10 12 11 12 13 13 17 19 20 20 20 19 19 18 17 16 15 14 13 12 11 10 8 7 7 6 5 4 3 2 2
13 14 14 13 13 13 13 12 10 8 8 10 10 9 11 12 13 13 14 17 19 20 20 20 20 19 19 18 17 16 15 14 13 12 11 9 8 7 6 5 4 3 3 2
13 13 14 14 14 13 13 12 11 12 11 11 10 9 11 13 12 12 13 16 18 19 20 20 20 20 19 19 18 17 16 16 14 13 12 11 10 8 7 5 4 4 3 2
13 13 14 13 13 13 12 12 12 13 12 10 10 9 12 13 13 14 14 16 18 20 20 20 20 20 19 19 18 18 17 16 15 14 13 12 10 8 7 6 5 4 3 2
13 13 13 13 12 12 12 11 11 10 10 9 9 10 11 13 14 14 15 16 19 20 20 20 20 20 19 19 18 18 17 16 16 15 14 12 11 9 8 7 5 4 3 2
13 13 13 12 12 12 12 10 8 10 11 10 10 10 12 14 15 14 13 15 18 19 19 19 19 19 19 18 18 17 17 16 15 14 14 13 12 10 8 7 5 4 3 2
12 12 12 12 11 12 10 10 10 9 8 9 9 11 12 13 13 13 13 16 17 18 18 18 18 18 18 18 17 17 17 16 16 15 14 13 12 10 9 7 5 4 3 2
11 9 10 11 11 10 10 10 9 10 10 7 7 11 13 12 11 11 12 15 17 17 17 17 17 17 17 17 17 17 16 16 15 14 14 13 11 10 9 7 6 4 3 2
10 10 11 12 12 10 10 10 9 9 9 7 7 12 13 11 12 14 14 15 16 16 16 16 16 16 16 16 16 16 16 15 15 14 13 12 11 10 9 7 6 4 2 1
10 9 11 12 12 12 11 10 9 9 9 8 9 12 14 14 14 14 15 15 14 15 15 15 15 15 15 15 16 15 15 15 14 14 13 13 12 11 9 7 5 4 2 1
9 8 8 9 10 9 9 10 10 9 10 10 12 12 14 14 13 13 14 13 13 14 14 14 14 14 15 15 15 15 14 14 14 13 13 13 11 10 8 6 5 3 2 1
7 8 8 8 9 8 8 9 10 10 10 10 11 11 13 13 12 12 12 12 12 13 13 14 14 14 14 14 14 14 14 13 13 13 13 12 11 9 7 6 4 2 1 1
5 6 7 7 9 8 8 9 10 10 9 9 10 12 11 10 10 11 11 12 12 12 13 13 13 13 13 13 13 13 13 13 13 12 12 11 10 9 7 5 3 2 1 0
5 5 6 5 8 8 11 10 10 10 10 10 10 10 10 10 11 12 12 12 12 12 12 12 12 12 13 13 12 12 12 12 12 11 11 10 9 8 6 4 3 2 1 0
5 6 6 5 5 7 8 9 9 9 9 10 10 10 10 11 10 11 12 11 11 11 11 11 11 11 11 12 11 11 11 11 11 11 10 9 8 7 6 4 3 2 1 0
3 5 5 4 5 7 9 10 11 10 9 11 11 10 10 9 7 8 11 10 10 10 10 10 10 10 11 11 10 10 10 10 10 10 9 8 7 6 5 4 3 1 0 -0
4 3 3 4 4 7 8 8 10 9 10 11 11 10 10 8 8 9 9 9 9 9 9 9 9 9 10 10 9 9 9 9 9 9 8 8 7 6 5 3 1 0 -1 -1
5 4 3 3 4 6 8 8 9 10 11 11 10 10 9 9 9 9 8 8 8 8 8 8 8 9 9 9 8 8 8 8 7 7 7 7 6 5 4 2 1 -1 -2 -2
5 6 6 5 7 9 10 10 11 11 10 10 9 9 9 8 8 8 8 8 8 8 8 8 7 7 8 8 7 7 7 6 6 6 7 6 5 4 3 1 -0 -1 -2 -3
5 5 5 5 6 7 9 10 10 10 9 9 9 8 8 7 7 7 6 6 6 7 7 6 6 6 7 7 6 6 6 5 5 6 6 5 4 3 1 0 -1 -2 -2 -2
6 6 5 6 6 7 8 9 9 9 8 8 7 7 7 6 6 5 5 6 6 6 6 5 5 5 5 5 5 5 5 5 5 5 5 4 4 2 1 -1 -1 -2 -2 -2
5 6 6 7 8 7 7 8 8 7 7 6 6 6 6 5 5 5 5 5 5 5 5 5 4 4 4 4 5 5 4 4 4 4 4 3 2 1 -0 -1 -2 -3 -3 -3
Wind_Speed
3 2 5 9 9 6 3 5 9 9 5 7 13 21 26 16 11 16 17 15 16 20 15 11 14 14 13 15 17 18 18 15 12 7 7 6 6 6 8 16 19 20 19 19
4 6 10 5 4 4 5 6 9 8 3 6 9 17 21 15 12 17 18 17 18 15 11 12 13 16 19 19 19 19 20 18 17 13 8 5 5 5 7 13 17 20 20 19
8 6 1 4 4 5 6 7 8 7 5 4 8 12 10 8 6 8 11 12 12 16 16 13 14 17 18 20 22 20 21 20 18 14 7 4 3 2 5 7 9 17 20 20
7 6 3 4 5 7 7 7 6 4 4 6 4 9 12 8 10 9 11 11 14 15 14 13 14 15 20 22 19 19 19 19 17 16 15 14 13 12 11 8 9 12 19 19
7 4 5 7 7 8 7 1 0 2 2 5 3 5 12 8 10 11 10 11 13 13 14 15 17 19 19 17 16 17 17 18 18 19 20 19 17 12 6 6 9 10 12 17
8 3 5 5 0 2 3 4 4 5 3 5 5 6 9 7 9 9 9 9 10 10 11 13 13 12 12 12 14 15 17 19 18 20 20 21 20 14 10 10 11 10 8 10
7 4 2 3 2 3 3 4 5 6 3 6 3 5 11 15 10 10 13 13 11 9 9 11 11 13 13 14 16 16 18 19 19 20 22 22 21 18 18 16 14 12 9 9
4 7 3 3 5 4 4 6 4 4 6 7 3 8 10 14 10 10 11 12 12 11 9 10 11 12 12 13 15 16 19 20 19 21 21 19 17 15 14 15 13 14 12 12
5 6 1 1 2 7 4 4 4 3 4 5 8 9 12 11 9 7 8 9 11 12 11 11 10 10 11 12 15 17 18 18 18 20 18 18 18 18 16 14 14 11 10 10
7 6 4 1 2 0 3 6 5 2 4 6 8 7 6 11 13 12 12 12 12 11 11 11 10 9 9 10 11 12 15 17 16 16 17 16 18 18 15 13 15 14 13 11
6 5 5 3 6 7 5 4 4 3 3 4 6 8 8 10 12 12 14 13 12 13 13 12 10 8 8 8 9 12 13 14 14 16 16 16 16 16 15 16 16 15 13 14
4 4 5 7 3 4 7 7 8 4 6 6 5 11 12 12 12 11 13 13 13 13 13 12 10 8 6 8 9 10 12 14 14 14 15 16 15 15 17 18 17 15 15 14
5 4 4 8 3 1 3 5 6 4 2 5 6 12 7 9 12 12 13 14 14 13 13 11 9 8 7 7 8 10 11 13 11 12 14 15 16 17 19 19 16 16 15 14
6 5 7 10 9 5 6 6 7 7 6 8 13 21 23 23 20 19 16 13 12 12 12 10 9 8 7 7 8 9 11 11 11 12 15 17 19 19 18 16 16 16 16 15
5 5 8 10 11 8 8 12 11 13 14 15 21 23 28 23 17 15 13 13 13 13 12 11 9 9 7 7 7 8 10 10 11 13 16 19 16 15 14 15 15 15 15 15
3 5 4 7 10 10 10 15 19 19 16 16 23 25 23 14 10 10 11 11 11 12 11 11 10 10 9 8 8 8 10 10 11 15 16 14 12 13 14 15 14 15 15 14
6 7 5 8 6 6 10 14 18 12 10 11 15 15 10 11 13 12 11 9 9 11 11 11 11 10 10 9 8 9 9 8 11 14 14 13 13 14 14 15 15 16 16 15
9 6 4 4 1 11 10 6 11 12 14 13 12 12 11 12 12 10 7 6 9 11 11 11 10 10 10 9 8 8 7 8 10 12 13 12 13 14 13 15 16 16 14 15
8 8 5 4 6 11 10 9 7 8 9 8 8 9 8 8 7 5 3 5 8 10 11 11 11 11 10 11 9 7 8 8 10 12 13 12 13 14 15 16 17 15 14 14
3 5 5 5 6 9 10 6 0 1 7 4 2 5 7 8 9 8 10 11 13 12 10 11 10 10 11 11 7 7 9 9 12 13 12 11 13 15 16 17 16 13 13 14
4 4 6 8 9 11 10 5 1 4 7 3 4 7 8 6 8 11 13 12 12 12 12 11 10 10 11 10 7 9 11 13 12 10 10 10 12 14 14 13 11 10 12 12
8 7 8 6 7 11 6 4 6 8 6 7 9 10 11 11 12 12 12 12 11 11 11 11 10 11 11 9 7 10 13 13 10 9 10 10 11 11 11 11 11 11 13 12
9 9 7 11 12 7 4 8 8 7 11 12 11 12 12 12 13 13 11 11 11 11 11 11 10 12 12 10 8 12 14 11 10 9 10 9 9 11 10 11 12 11 11 11
7 7 7 9 12 12 12 12 12 13 15 13 12 12 11 12 12 11 10 10 10 10 11 10 11 13 14 12 11 11 13 11 10 11 10 8 8 9 10 10 11 12 13 12
8 5 8 15 15 13 11 11 12 12 11 12 12 10 8 8 8 8 8 10 10 10 10 10 11 13 15 14 14 13 11 10 11 11 9 8 8 9 10 11 12 13 13 15
11 14 15 20 15 14 15 11 11 12 11 10 8 6 5 4 7 8 9 9 10 12 12 12 13 13 15 15 15 14 11 9 10 10 9 7 7 8 9 9 10 19 18 22
Wind_Direction
41 61 239 229 212 221 244 248 266 265 223 199 244 261 271 265 229 243 245 240 237 239 238 209 204 201 199 200 202 203 203 198 185 179 185 189 207 205 205 209 208 207 207 207
15 266 245 222 186 207 234 266 274 284 219 214 277 277 273 265 240 237 239 237 236 239 234 211 201 199 204 206 206 205 206 200 197 197 183 177 177 194 205 206 208 208 206 205
222 249 185 164 188 209 239 229 251 273 319 270 307 297 287 291 256 254 241 237 234 231 234 219 206 206 206 209 208 208 207 203 200 190 169 150 143 154 181 200 206 206 204 203
249 264 208 214 233 197 261 244 234 277 318 299 353 303 294 291 299 270 251 236 236 233 230 222 210 209 211 214 208 208 204 203 198 188 190 191 199 206 203 195 197 197 200 202
266 231 203 226 236 191 229 347 216 295 251 299 260 237 287 312 293 282 267 245 238 232 225 224 217 217 216 211 205 205 203 203 198 196 200 203 212 213 185 180 187 194 199 203
251 256 210 215 91 161 141 61 52 54 71 291 239 196 284 271 253 286 299 284 261 247 232 232 227 217 215 202 201 199 202 206 200 200 204 208 212 203 188 191 195 198 199 203
316 301 245 151 118 41 93 66 346 337 341 261 197 213 255 261 252 256 278 291 294 274 248 238 227 219 215 205 203 200 202 208 203 203 208 211 213 206 205 201 201 197 199 205
307 304 240 198 196 190 180 158 180 260 268 289 269 239 258 272 284 270 270 280 291 284 265 250 237 225 220 211 203 201 206 210 204 206 211 212 211 209 212 207 200 200 203 205
215 272 312 159 196 154 163 204 179 173 282 282 276 288 297 294 320 320 305 299 294 291 282 265 254 234 223 213 207 205 207 210 208 208 209 211 210 211 211 205 202 201 200 196
181 260 294 0 97 40 175 160 112 153 281 286 288 278 260 296 307 318 320 312 303 303 294 280 265 248 233 221 210 202 207 212 211 207 209 212 212 213 210 203 203 203 199 193
178 216 296 312 211 206 148 161 165 172 200 229 281 270 239 250 272 290 297 298 297 297 293 285 275 258 236 219 205 205 208 210 211 210 210 213 211 209 208 209 208 203 198 194
162 144 265 268 241 175 181 194 163 191 244 209 244 271 257 258 274 280 285 292 294 290 288 284 281 273 249 228 214 211 211 214 216 210 209 214 212 206 209 212 209 200 197 195
139 125 336 336 353 96 226 216 196 191 197 209 227 269 274 288 293 290 288 291 295 298 300 300 296 283 264 243 225 218 218 220 214 207 211 214 215 212 214 214 207 200 197 194
140 177 202 233 247 246 234 232 198 190 225 244 238 263 283 288 294 301 306 305 304 302 303 305 304 296 279 254 233 226 227 220 213 210 215 219 219 218 217 212 205 200 196 194
135 230 241 253 267 269 246 249 230 218 226 243 264 269 277 286 298 301 305 311 313 314 317 316 310 304 296 275 251 236 234 222 213 215 221 226 223 218 214 210 204 199 196 196
156 228 254 264 256 254 256 249 248 247 242 244 262 272 275 290 299 303 308 310 315 316 316 316 313 308 301 285 264 246 238 225 212 220 228 228 220 215 213 209 202 198 196 193
197 199 240 269 271 294 264 236 235 230 217 216 245 259 298 320 319 314 312 316 314 311 309 309 306 299 293 285 267 255 246 225 218 227 232 225 217 216 213 208 204 201 197 192
182 176 217 282 352 243 248 237 226 237 249 236 249 275 299 295 295 286 278 305 319 315 310 307 302 299 295 289 280 268 253 232 228 234 234 224 215 217 211 207 208 205 198 195
184 170 200 225 253 271 287 268 222 218 268 250 245 272 290 299 314 295 285 317 305 300 296 293 292 291 293 293 290 282 268 248 241 242 239 227 216 214 210 210 210 205 199 198
115 160 187 198 225 255 251 257 238 139 281 272 216 300 309 338 334 304 312 317 311 306 300 298 300 300 298 297 296 283 275 262 255 250 242 228 216 215 215 214 210 203 200 200
135 166 202 219 237 264 261 283 125 211 253 301 316 310 304 288 268 281 297 301 298 299 299 299 300 298 294 297 297 285 282 274 268 258 244 228 218 217 218 214 207 199 198 195
192 195 209 204 222 255 249 164 202 241 290 306 306 300 293 286 286 293 298 298 300 302 302 303 303 300 301 303 297 289 286 284 279 264 249 234 221 215 213 207 202 196 195 194
210 204 206 206 227 248 222 226 257 285 292 293 290 288 291 294 298 302 301 304 306 304 304 306 305 305 305 303 292 288 290 293 286 272 257 242 222 211 204 200 199 194 195 198
238 219 232 256 258 260 267 270 275 276 279 284 286 290 291 291 296 301 303 305 307 305 307 308 311 309 308 307 299 286 289 290 284 276 266 243 224 215 206 202 200 199 200 201
227 230 246 262 272 281 260 259 271 281 286 290 292 290 291 297 302 302 302 302 303 304 303 305 305 303 301 303 301 297 291 288 284 278 267 244 224 214 209 210 209 207 210 207
216 236 251 264 267 274 284 288 289 290 290 291 295 303 313 308 298 300 299 299 301 304 304 305 303 301 302 303 302 300 294 287 282 283 270 247 228 217 212 213 221 224 219 222
Height
1549 1553 1555 1553 1552 1551 1551 1552 1554 1548 1541 1545 1541 1530 1513 1508 1510 1505 1502 1502 1502 1502 1505 1509 1512 1514 1517 1518 1520 1522 1524 1526 1529 1530 1531 1532 1532 1535 1535 1536 1536 1535 1534 1533
1553 1554 1547 1546 1548 1550 1552 1553 1552 1545 1540 1543 1538 1526 1507 1499 1497 1493 1492 1491 1492 1494 1497 1501 1504 1506 1508 1509 1511 1513 1515 1517 1519 1521 1523 1525 1526 1527 1529 1529 1529 1528 1528 1527
1551 1546 1543 1545 1547 1549 1549 1551 1548 1546 1540 1540 1540 1521 1505 1493 1489 1486 1484 1484 1485 1487 1489 1493 1496 1498 1500 1501 1503 1504 1507 1509 1511 1513 1516 1517 1518 1518 1519 1520 1521 1521 1521 1520
1548 1544 1543 1544 1545 1546 1551 1543 1543 1542 1546 1548 1542 1537 1504 1496 1489 1482 1478 1478 1478 1480 1483 1486 1488 1490 1492 1494 1496 1498 1499 1501 1503 1505 1506 1506 1506 1507 1509 1512 1514 1514 1513 1513
1546 1541 1542 1544 1542 1542 1543 1540 1542 1543 1546 1550 1545 1545 1513 1500 1490 1478 1473 1472 1473 1476 1478 1480 1482 1484 1486 1488 1489 1490 1492 1493 1494 1495 1496 1497 1498 1499 1502 1504 1505 1506 1505 1505
1542 1539 1538 1539 1539 1539 1540 1542 1546 1552 1554 1554 1543 1548 1523 1500 1487 1479 1472 1471 1471 1472 1474 1475 1477 1478 1479 1481 1482 1482 1483 1484 1485 1486 1486 1487 1488 1490 1492 1494 1496 1497 1497 1497
1544 1539 1537 1537 1539 1541 1542 1549 1556 1552 1553 1548 1540 1542 1519 1486 1480 1478 1474 1470 1469 1469 1469 1470 1471 1472 1473 1474 1474 1475 1475 1476 1476 1476 1477 1477 1479 1480 1482 1484 1487 1488 1488 1488
1550 1547 1537 1537 1538 1541 1544 1547 1556 1556 1555 1546 1537 1535 1506 1480 1477 1475 1472 1470 1467 1467 1466 1466 1467 1467 1468 1468 1468 1468 1468 1468 1468 1468 1468 1469 1470 1471 1472 1475 1477 1478 1479 1481
1549 1546 1537 1536 1536 1539 1544 1547 1547 1554 1553 1555 1540 1525 1503 1478 1474 1471 1469 1468 1466 1465 1464 1463 1463 1463 1463 1462 1462 1462 1461 1461 1461 1461 1461 1460 1461 1461 1462 1465 1467 1469 1470 1472
1542 1545 1538 1537 1537 1538 1539 1544 1553 1552 1554 1551 1540 1528 1510 1486 1476 1471 1468 1466 1464 1462 1461 1459 1459 1458 1457 1456 1456 1455 1454 1454 1454 1453 1452 1452 1452 1452 1453 1455 1456 1458 1461 1462
1539 1544 1541 1538 1539 1538 1542 1544 1545 1551 1554 1554 1546 1523 1493 1485 1476 1473 1468 1465 1462 1460 1457 1455 1453 1452 1450 1449 1448 1448 1447 1446 1446 1445 1444 1443 1443 1443 1443 1444 1446 1448 1451 1452
1540 1546 1547 1539 1534 1534 1537 1538 1543 1548 1545 1552 1551 1516 1482 1477 1471 1470 1467 1463 1460 1457 1454 1450 1447 1445 1443 1442 1441 1441 1440 1439 1438 1437 1436 1434 1433 1433 1432 1433 1434 1437 1440 1442
1541 1545 1548 1540 1540 1537 1536 1536 1538 1538 1542 1547 1543 1507 1477 1473 1468 1466 1464 1460 1456 1452 1448 1444 1442 1439 1438 1436 1435 1434 1433 1432 1431 1429 1427 1425 1423 1422 1421 1422 1424 1426 1429 1432
1537 1543 1544 1542 1534 1530 1533 1532 1534 1536 1537 1533 1520 1495 1476 1470 1467 1462 1459 1456 1452 1448 1444 1440 1438 1435 1433 1432 1430 1429 1428 1426 1424 1421 1418 1415 1413 1412 1411 1412 1413 1416 1419 1421
1536 1541 1539 1534 1529 1530 1529 1526 1525 1525 1518 1514 1494 1487 1472 1465 1465 1461 1458 1454 1449 1445 1441 1438 1435 1433 1431 1428 1426 1425 1423 1420 1417 1414 1410 1407 1405 1403 1402 1402 1403 1406 1409 1412
1536 1538 1536 1531 1526 1525 1524 1518 1512 1507 1504 1499 1489 1480 1465 1465 1462 1459 1455 1452 1448 1444 1441 1438 1434 1431 1428 1426 1423 1420 1417 1414 1410 1406 1402 1399 1396 1394 1392 1392 1394 1396 1399 1402
1535 1537 1535 1529 1522 1521 1517 1501 1496 1493 1488 1487 1483 1470 1463 1463 1459 1456 1453 1450 1447 1444 1440 1437 1433 1429 1426 1422 1418 1414 1411 1407 1403 1399 1394 1391 1387 1384 1383 1383 1384 1385 1388 1392
1527 1532 1534 1533 1523 1521 1493 1483 1482 1481 1476 1474 1470 1465 1464 1463 1458 1455 1452 1450 1446 1443 1439 1434 1430 1425 1421 1417 1413 1408 1404 1400 1395 1391 1386 1382 1378 1375 1374 1373 1373 1375 1378 1381
1518 1525 1530 1534 1527 1506 1493 1480 1476 1477 1473 1466 1465 1464 1462 1459 1454 1451 1450 1447 1444 1440 1435 1430 1426 1420 1416 1411 1406 1401 1397 1392 1387 1382 1378 1374 1370 1366 1364 1362 1363 1365 1368 1371
1518 1519 1526 1530 1527 1508 1484 1472 1470 1473 1474 1463 1462 1461 1459 1456 1456 1448 1445 1442 1437 1433 1429 1424 1419 1414 1410 1405 1399 1394 1389 1384 1379 1375 1370 1365 1361 1358 1355 1354 1354 1356 1358 1362
1520 1524 1526 1523 1518 1494 1477 1472 1472 1478 1470 1462 1460 1458 1456 1454 1451 1444 1440 1436 1432 1427 1423 1418 1413 1408 1404 1398 1392 1387 1382 1376 1371 1366 1361 1356 1352 1349 1347 1346 1346 1347 1350 1354
1510 1516 1519 1516 1514 1495 1469 1471 1471 1466 1460 1459 1456 1454 1450 1446 1442 1437 1433 1428 1424 1419 1415 1411 1405 1401 1397 1392 1385 1379 1374 1369 1363 1357 1352 1348 1344 1341 1339 1338 1338 1339 1342 1345
1501 1496 1494 1493 1481 1468 1465 1464 1462 1461 1457 1454 1451 1448 1445 1439 1435 1431 1427 1422 1418 1414 1409 1404 1398 1393 1389 1384 1378 1371 1366 1361 1355 1349 1344 1340 1336 1333 1331 1330 1330 1331 1333 1336
1488 1485 1485 1479 1466 1462 1460 1459 1458 1456 1452 1448 1446 1442 1438 1433 1429 1425 1422 1417 1413 1408 1403 1397 1392 1385 1380 1376 1371 1365 1359 1353 1347 1342 1337 1332 1328 1325 1323 1322 1322 1323 1324 1327
1482 1480 1477 1469 1461 1457 1453 1453 1451 1449 1446 1442 1439 1436 1432 1428 1424 1421 1416 1412 1407 1402 1397 1391 1385 1379 1373 1368 1362 1357 1351 1345 1339 1334 1329 1325 1321 1317 1315 1315 1315 1315 1317 1320
1471 1473 1471 1458 1454 1454 1447 1448 1446 1442 1438 1435 1432 1429 1426 1423 1420 1416 1412 1407 1402 1396 1390 1384 1378 1372 1365 1360 1354 1349 1344 1338 1332 1326 1322 1318 1314 1310 1308 1307 1307 1308 1310 1314